[[{"header":{"parameterUnit":"m.s-1","parameterCategory":1,"la1":30.2991,"la2":30.254,"lo1":-89.0895,"lo2":-89.0444,"dy":0.0017,"dx":0.0017,"nx":28,"ny":28,"refTime":"2025-01-21T03:00:00:Z","depth":0,"parameterNumber":2,"parameterNumberName":"U-component_of_WINDS"},"data":[0,0,0,0,0,0,0,0,0,0,0,0,0,0,0,0,0,0,0,0,0,0,0,0,0,0,0,0,0,0,0,0,0,0,0,0,0,0,0,0,0,0,0,0,0,0,0,0,0,0,0,0,0,0,0,0,0,0,-1.7208,-1.7208,0,-1.72,-1.72,-1.72,-1.7141,-1.7139,-1.7138,-1.7137,-1.7132,-1.7133,-1.7134,0,0,0,0,0,0,0,0,0,0,0,0,0,-1.7178,-1.7179,-1.7208,-1.7208,-1.7208,-1.72,-1.72,-1.72,-1.7141,-1.7139,-1.7138,-1.7136,-1.7131,-1.7133,-1.7134,0,0,0,0,0,0,0,0,0,0,0,0,0,-1.7183,-1.7179,-1.7209,-1.7178,-1.7175,-1.72,-1.72,-1.72,-1.7142,-1.7139,-1.7137,-1.7135,-1.7131,-1.7133,-1.7134,-1.7189,0,0,-1.714,-1.7141,0,0,0,0,0,0,0,0,-1.7182,-1.7184,-1.7183,-1.718,-1.7177,-1.7169,-1.7187,-1.7196,-1.7142,-1.7154,-1.7137,-1.7134,-1.7146,-1.7147,-1.715,-1.7189,-1.7188,-1.714,-1.7141,-1.7142,-1.7142,0,0,0,0,0,0,0,-1.7182,-1.7184,-1.7205,-1.7183,-1.7179,-1.7166,-1.7164,-1.7188,-1.7163,-1.7153,-1.7149,-1.7148,-1.7144,-1.7148,-1.7149,-1.7188,-1.714,-1.7142,-1.7143,-1.7143,-1.7273,-1.7275,0,0,0,0,0,0,-1.7185,-1.7184,-1.7205,-1.7205,-1.7174,-1.7168,-1.7166,-1.7174,-1.7162,-1.7158,-1.715,-1.7146,-1.7146,-1.7147,-1.7149,-1.7213,-1.7142,-1.7144,-1.7145,-1.727,-1.7273,-1.7276,0,0,0,0,0,0,-1.7185,-1.7188,-1.7206,-1.7193,-1.7194,-1.7171,-1.718,-1.7175,-1.7179,-1.716,-1.7155,-1.7159,-1.7144,-1.7146,-1.7179,-1.7212,-1.7144,-1.7146,-1.7268,-1.7271,-1.7275,-1.7342,0,0,0,0,0,0,-1.7184,-1.7188,-1.7208,-1.7194,-1.7195,-1.7236,-1.7182,-1.7176,-1.7182,-1.7176,-1.7167,-1.7163,-1.7143,-1.7177,-1.7181,-1.7213,-1.7148,-1.7265,-1.7269,-1.7273,-1.7337,-1.7347,-1.7356,0,0,0,0,0,-1.7184,-1.7228,-1.7209,-1.7212,-1.7219,-1.7238,-1.7238,-1.7213,-1.7184,-1.7205,-1.7193,-1.7164,-1.7207,-1.7181,-1.7185,-1.7218,-1.7263,-1.7268,-1.7273,-1.7332,-1.7345,-1.7356,0,0,0,0,0,0,-1.7247,-1.7225,-1.7205,-1.7245,-1.7244,-1.7228,-1.7253,-1.7227,-1.7235,-1.7229,-1.7198,-1.7196,-1.7235,-1.7229,-1.72,-1.7271,-1.723,-1.7236,-1.7274,-1.7286,-1.7295,-1.7297,-1.7149,0,0,0,0,0,-1.7266,-1.7282,-1.7262,-1.73,-1.73,-1.7276,-1.7283,-1.7264,-1.7261,-1.7261,-1.7251,-1.7251,-1.7264,-1.7274,-1.7286,-1.7335,-1.7333,-1.736,-1.737,-1.7378,-1.7384,-1.7411,-1.7424,-1.7293,-1.7293,-1.7293,0,0,-1.7305,-1.7295,-1.7307,-1.7312,-1.7309,-1.7327,-1.7276,-1.7297,-1.7311,-1.7264,-1.7295,-1.7288,-1.7286,-1.7327,-1.7345,-1.7324,-1.742,-1.7384,-1.7391,-1.7393,-1.7418,-1.743,-1.7441,-1.7297,-1.7296,-1.7296,0,0,-1.7386,-1.7379,-1.7411,-1.7408,-1.7402,-1.7386,-1.7394,-1.7382,-1.7375,-1.7405,-1.737,-1.7386,-1.741,-1.741,-1.7414,-1.7494,-1.7469,-1.7499,-1.7551,-1.7578,-1.7588,-1.7597,-1.7628,-1.7639,-1.7505,-1.7505,-1.7505,0,-1.7436,-1.7461,-1.743,-1.7454,-1.7458,-1.7414,-1.7447,-1.7446,-1.7446,-1.745,-1.7426,-1.7455,-1.7451,-1.7492,-1.7512,-1.7515,-1.7525,-1.7501,-1.7589,-1.7598,-1.7606,-1.7635,-1.7646,-1.7509,-1.7509,-1.7508,-1.7508,0,-1.7523,-1.7541,-1.7567,-1.7567,-1.7573,-1.7601,-1.7576,-1.7587,-1.7566,-1.7553,-1.7585,-1.7578,-1.7588,-1.7595,-1.7576,-1.7635,-1.7622,-1.7594,-1.7553,-1.7622,-1.7649,-1.766,-1.7515,-1.7513,-1.7512,-1.7511,0,0,-1.7646,-1.7627,-1.7638,-1.7637,-1.7628,-1.7642,-1.7668,-1.7676,-1.7687,-1.7688,-1.7711,-1.7731,-1.7705,-1.7709,-1.7689,-1.7712,-1.7779,-1.7681,-1.768,-1.7701,-1.7845,-1.7868,-1.7881,-1.776,-1.7762,-1.7764,-1.7846,0,-1.7725,-1.7768,-1.7742,-1.779,-1.7807,-1.7765,-1.7788,-1.7786,-1.7774,-1.7788,-1.7775,-1.7791,-1.7754,-1.7757,-1.7777,-1.7766,-1.7807,-1.7759,-1.7783,-1.7784,-1.7787,-1.7895,-1.7919,-1.7997,-1.7856,-1.7858,-1.7859,0,-1.7824,-1.7828,-1.7878,-1.7865,-1.7872,-1.7893,-1.7899,-1.7911,-1.7908,-1.7898,-1.7902,-1.7876,-1.7903,-1.786,-1.7897,-1.7865,-1.7873,-1.7869,-1.7871,-1.7874,-1.7828,-1.7903,-1.8021,-1.8034,-1.7875,-1.7873,-1.7872,0,-1.7911,-1.7929,-1.7961,-1.7962,-1.7948,-1.7964,-1.7959,-1.7953,-1.796,-1.7966,-1.797,-1.7979,-1.7984,-1.7992,-1.797,-1.794,-1.8011,-1.7966,-1.8005,-1.8006,-1.8024,-1.8023,-1.8147,-1.8025,-1.8025,-1.8024,-1.8024,0,-1.8004,-1.8037,-1.8,-1.8021,-1.8056,-1.8025,-1.8061,-1.8052,-1.8047,-1.8066,-1.803,-1.8049,-1.8017,-1.8033,-1.8016,-1.805,-1.8052,-1.8046,-1.8042,-1.8051,-1.8052,-1.8057,-1.8052,-1.8028,-1.8027,-1.8026,-1.8026,0,-1.8109,-1.8085,-1.8118,-1.8101,-1.8098,-1.8125,-1.8112,-1.8131,-1.8116,-1.814,-1.8144,-1.8122,-1.8138,-1.8116,-1.8131,-1.8119,-1.8167,-1.8153,-1.8168,-1.8165,-1.8206,-1.8204,-1.834,-1.8357,-1.8222,-1.8223,-1.8224,0,-1.8171,-1.8194,-1.818,-1.819,-1.8187,-1.8202,-1.8209,-1.8179,-1.8187,-1.8185,-1.8205,-1.8218,-1.8227,-1.8256,-1.8242,-1.8253,-1.8241,-1.8288,-1.8243,-1.8251,-1.8244,-1.8244,-1.8247,-1.8298,-1.83,-1.8301,-1.8302,0,-1.8284,-1.8271,-1.8281,-1.8288,-1.8296,-1.83,-1.8301,-1.8311,-1.828,-1.8292,-1.8308,-1.8315,-1.8329,-1.8344,-1.8351,-1.8347,-1.8321,-1.8316,-1.8326,-1.8337,-1.8345,-1.8343,-1.8196,-1.8314,-1.8312,-1.8312,-1.8311,-1.831,-1.837,-1.839,-1.8383,-1.8396,-1.8394,-1.8396,-1.8413,-1.84,-1.8412,-1.8421,-1.8402,-1.8423,-1.842,-1.8427,-1.8426,-1.8443,-1.8423,-1.8437,-1.8441,-1.8446,-1.8453,-1.834,-1.8444,-1.8444,-1.8443,-1.8443,-1.8443,0,-1.8483,-1.8477,-1.8488,-1.8491,-1.8502,-1.8473,-1.8473,-1.8484,-1.8503,-1.8501,-1.851,-1.853,-1.8543,-1.853,-1.8541,-1.8558,-1.8546,-1.8562,-1.8562,-1.8562,-1.8469,-1.846,-1.8571,-1.8571,-1.8571,-1.8571,-1.8571,-1.8571,-1.8544,-1.8576,-1.8562,-1.8594,-1.8587,-1.8606,-1.8609,-1.8611,-1.861,-1.8632,-1.8643,-1.8633,-1.8628,-1.8638,-1.865,-1.8646,-1.8653,-1.8674,-1.8666,-1.858,-1.8568,-1.8556,-1.8548,-1.8675,-1.8675,-1.8757,-1.8758,-1.8758]},{"header":{"parameterUnit":"m.s-1","parameterCategory":1,"la1":30.2991,"la2":30.254,"lo1":-89.0895,"lo2":-89.0444,"dy":0.0017,"dx":0.0017,"nx":28,"ny":28,"refTime":"2025-01-21T03:00:00:Z","depth":0,"parameterNumber":3,"parameterNumberName":"V-component_of_WINDS"},"data":[0,0,0,0,0,0,0,0,0,0,0,0,0,0,0,0,0,0,0,0,0,0,0,0,0,0,0,0,0,0,0,0,0,0,0,0,0,0,0,0,0,0,0,0,0,0,0,0,0,0,0,0,0,0,0,0,0,0,-3.457,-3.457,0,-3.4573,-3.4573,-3.4573,-3.4528,-3.4527,-3.4526,-3.4525,-3.4527,-3.4528,-3.4529,0,0,0,0,0,0,0,0,0,0,0,0,0,-3.4523,-3.4524,-3.457,-3.457,-3.457,-3.4573,-3.4573,-3.4573,-3.4528,-3.4527,-3.4525,-3.4524,-3.4527,-3.4528,-3.4529,0,0,0,0,0,0,0,0,0,0,0,0,0,-3.4537,-3.4525,-3.457,-3.4548,-3.4546,-3.4573,-3.4573,-3.4573,-3.4529,-3.4527,-3.4525,-3.4523,-3.4526,-3.4528,-3.453,-3.4577,0,0,-3.4535,-3.4536,0,0,0,0,0,0,0,0,-3.4536,-3.4538,-3.4551,-3.4549,-3.4547,-3.4548,-3.4557,-3.4575,-3.4529,-3.4535,-3.4525,-3.4522,-3.4536,-3.4536,-3.4541,-3.4578,-3.4578,-3.4535,-3.4536,-3.4537,-3.4538,0,0,0,0,0,0,0,-3.4535,-3.4538,-3.4571,-3.4551,-3.4549,-3.4537,-3.4537,-3.456,-3.4546,-3.4535,-3.4531,-3.4532,-3.4534,-3.4539,-3.4541,-3.4578,-3.4535,-3.4537,-3.4538,-3.4539,-3.4653,-3.4655,0,0,0,0,0,0,-3.4537,-3.4537,-3.4571,-3.4571,-3.4537,-3.454,-3.454,-3.455,-3.4545,-3.4543,-3.4534,-3.453,-3.4537,-3.4539,-3.4541,-3.4596,-3.4537,-3.4539,-3.454,-3.4651,-3.4654,-3.4656,0,0,0,0,0,0,-3.4536,-3.4541,-3.4571,-3.4553,-3.4556,-3.4543,-3.4554,-3.4551,-3.4556,-3.4545,-3.4542,-3.4542,-3.4536,-3.4538,-3.4569,-3.4596,-3.454,-3.4541,-3.4649,-3.4652,-3.4655,-3.4708,0,0,0,0,0,0,-3.4535,-3.4541,-3.4559,-3.4554,-3.4557,-3.4599,-3.4556,-3.4552,-3.4559,-3.4555,-3.4552,-3.4549,-3.4535,-3.4566,-3.4571,-3.4597,-3.4543,-3.4647,-3.4651,-3.4654,-3.4704,-3.4713,-3.472,0,0,0,0,0,-3.4534,-3.4574,-3.456,-3.4564,-3.458,-3.4601,-3.4603,-3.4585,-3.4562,-3.458,-3.4573,-3.455,-3.4592,-3.457,-3.4574,-3.4602,-3.4645,-3.4649,-3.4654,-3.4701,-3.4711,-3.472,0,0,0,0,0,0,-3.4582,-3.4573,-3.4558,-3.4597,-3.46,-3.4593,-3.4616,-3.4597,-3.4606,-3.4601,-3.4579,-3.4578,-3.4613,-3.461,-3.4585,-3.4648,-3.4614,-3.462,-3.4648,-3.4658,-3.4666,-3.4666,-3.4544,0,0,0,0,0,-3.4597,-3.4615,-3.4606,-3.4642,-3.4644,-3.463,-3.4638,-3.4624,-3.4626,-3.4627,-3.4622,-3.4625,-3.4638,-3.4648,-3.466,-3.4703,-3.4702,-3.4725,-3.4733,-3.4739,-3.4744,-3.4767,-3.4777,-3.4671,-3.467,-3.467,0,0,-3.4628,-3.4626,-3.4638,-3.4651,-3.4652,-3.4671,-3.4631,-3.4652,-3.4666,-3.463,-3.4659,-3.4655,-3.4657,-3.4694,-3.471,-3.4693,-3.4774,-3.4745,-3.475,-3.4752,-3.4773,-3.4783,-3.4792,-3.4674,-3.4673,-3.4672,0,0,-3.4696,-3.4695,-3.4725,-3.4727,-3.4729,-3.4719,-3.4726,-3.4722,-3.4718,-3.4747,-3.472,-3.4736,-3.476,-3.4762,-3.4767,-3.4835,-3.4814,-3.4839,-3.4881,-3.4904,-3.4912,-3.4919,-3.4944,-3.4953,-3.4844,-3.4844,-3.4844,0,-3.4735,-3.4762,-3.4743,-3.4766,-3.4773,-3.4741,-3.4771,-3.4773,-3.4779,-3.4784,-3.4765,-3.4795,-3.4793,-3.4831,-3.4847,-3.4852,-3.4859,-3.484,-3.4912,-3.492,-3.4926,-3.4949,-3.4959,-3.4847,-3.4847,-3.4847,-3.4846,0,-3.481,-3.483,-3.4853,-3.486,-3.4869,-3.4896,-3.488,-3.4891,-3.4876,-3.4869,-3.4898,-3.4895,-3.4906,-3.4914,-3.49,-3.4949,-3.4939,-3.4916,-3.4882,-3.494,-3.4961,-3.497,-3.4852,-3.4851,-3.485,-3.4849,0,0,-3.4908,-3.4903,-3.4913,-3.4915,-3.4915,-3.4929,-3.4954,-3.4965,-3.4976,-3.498,-3.5001,-3.5022,-3.5001,-3.5006,-3.4992,-3.5012,-3.5066,-3.4987,-3.4986,-3.5002,-3.512,-3.5138,-3.5148,-3.5052,-3.5053,-3.5055,-3.512,0,-3.4974,-3.5017,-3.5,-3.5044,-3.5062,-3.5032,-3.5054,-3.5056,-3.5049,-3.5063,-3.5055,-3.5071,-3.5042,-3.5045,-3.5063,-3.5055,-3.5089,-3.505,-3.507,-3.5071,-3.5072,-3.5159,-3.5177,-3.524,-3.5129,-3.513,-3.5131,0,-3.5056,-3.5065,-3.5111,-3.5107,-3.5114,-3.5134,-3.5143,-3.5156,-3.5158,-3.5151,-3.5157,-3.5138,-3.5162,-3.5128,-3.5161,-3.5135,-3.5142,-3.5139,-3.5141,-3.5143,-3.5105,-3.5164,-3.5259,-3.5269,-3.5144,-3.5143,-3.5142,0,-3.5123,-3.5146,-3.5177,-3.518,-3.5176,-3.5191,-3.519,-3.519,-3.5198,-3.5205,-3.521,-3.522,-3.5226,-3.5234,-3.5219,-3.5195,-3.5254,-3.5218,-3.5249,-3.525,-3.5263,-3.5263,-3.5362,-3.5267,-3.5267,-3.5267,-3.5267,0,-3.5199,-3.5228,-3.5207,-3.5226,-3.5258,-3.5238,-3.527,-3.5266,-3.5266,-3.5283,-3.5258,-3.5274,-3.5253,-3.5267,-3.5255,-3.5284,-3.5287,-3.5282,-3.5279,-3.5285,-3.5285,-3.5289,-3.5285,-3.5269,-3.5269,-3.5268,-3.5268,0,-3.5279,-3.5266,-3.5298,-3.5292,-3.5291,-3.5315,-3.531,-3.5327,-3.5318,-3.534,-3.5344,-3.5331,-3.5347,-3.5332,-3.5347,-3.5339,-3.5378,-3.5368,-3.5377,-3.5375,-3.5407,-3.5404,-3.5512,-3.5525,-3.5422,-3.5423,-3.5424,0,-3.5328,-3.535,-3.5347,-3.5357,-3.5358,-3.5374,-3.5382,-3.5363,-3.5372,-3.5376,-3.5392,-3.5406,-3.5416,-3.5443,-3.5434,-3.5445,-3.5436,-3.5473,-3.5437,-3.5443,-3.5437,-3.5436,-3.5438,-3.548,-3.5481,-3.5482,-3.5483,0,-3.5417,-3.541,-3.5422,-3.5433,-3.5443,-3.5451,-3.5456,-3.5465,-3.5446,-3.5457,-3.5473,-3.5481,-3.5497,-3.5511,-3.5519,-3.5518,-3.5498,-3.5494,-3.5502,-3.5509,-3.5514,-3.5512,-3.5398,-3.5492,-3.5491,-3.5491,-3.549,-3.549,-3.5484,-3.5502,-3.5503,-3.5517,-3.5519,-3.5525,-3.5541,-3.5534,-3.5548,-3.5559,-3.5547,-3.5566,-3.5567,-3.5576,-3.5577,-3.5592,-3.5577,-3.5588,-3.5591,-3.5594,-3.5599,-3.5511,-3.5594,-3.5593,-3.5593,-3.5593,-3.5593,0,-3.5571,-3.557,-3.5584,-3.5593,-3.5604,-3.5584,-3.5589,-3.56,-3.5618,-3.562,-3.5631,-3.5649,-3.5663,-3.5655,-3.5666,-3.568,-3.5671,-3.5684,-3.5683,-3.5683,-3.5612,-3.5604,-3.5691,-3.5691,-3.5691,-3.5691,-3.5691,-3.5691,-3.5618,-3.5648,-3.5641,-3.5672,-3.567,-3.5689,-3.5694,-3.5699,-3.57,-3.5722,-3.5734,-3.5729,-3.5727,-3.5738,-3.575,-3.5747,-3.5752,-3.5769,-3.5763,-3.5697,-3.5688,-3.5678,-3.5671,-3.577,-3.577,-3.5832,-3.5833,-3.5833]}]]